Regional Weather Roundup
Issued by NWS Charleston, SC

Home | Current Version | Previous Version | Text Only | Print | Product List | Glossary On
Versions: 1 2 3 4 5 6 7 8 9 10 11 12 13 14 15 16 17 18 19 20 21 22 23 24 25 26 27 28 29 30 31 32 33 34 35 36 37 38 39 40 41 42 43 44 45 46 47 48 49 50
000
ASUS42 KCHS 231411
RWRCHS

REGIONAL WEATHER ROUNDUP
NATIONAL WEATHER SERVICE CHARLESTON SC
900 AM EST THU FEB 23 2017

NOTE: "FAIR" INDICATES FEW OR NO CLOUDS BELOW 12,000 FEET WITH NO
SIGNIFICANT WEATHER AND/OR OBSTRUCTIONS TO VISIBILITY.

NOT ALL STATIONS ARE QUALITY CONTROLLED. USE DATA WITH CAUTION...
ESPECIALLY DEWPOINT OBSERVATIONS.

SCZ027-030-031-034>040-042>050-231500-
...SOUTHEAST SOUTH CAROLINA...

CITY           SKY/WX    TMP DP  RH WIND       PRES   REMARKS
N CHARLESTON   CLOUDY    63  58  83 N9        29.89R
WATERFRONT PRK   N/A     62  60  93 N10       29.86R
MOUNT PLEASANT PTSUNNY   63  61  94 N5        29.89R
JOHNS ISLAND   PTSUNNY   64  61  88 N8        29.88R
PINOPOLIS        N/A     57  57 100 CALM      29.82R
MONCKS CORNER  PTSUNNY   61  55  82 NE5       29.90F
SUMMERVILLE    FAIR      61  55  82 NE5       29.90F
BEAUFORT MCAS  PTSUNNY   66  61  84 NE7       29.86F
BEAUFORT ARPT  CLOUDY    63  59  88 NE13      29.86S
HILTON HEAD IS PTSUNNY  N/A N/A N/A NE9       29.86R
WALTERBORO     MOSUNNY   63  55  77 NE9       29.90S
ALLENDALE      FAIR      64  57  77 N5        29.89R

...SOUTHERN MIDLANDS AND PEE DEE...

CITY           SKY/WX    TMP DP  RH WIND       PRES   REMARKS
GEORGETOWN     CLOUDY    63  59  88 NE8       29.92R
KINGSTREE      FAIR      61  54  77 CALM      29.92F
ORANGEBURG     SUNNY     63  55  75 NE8       29.91S
BARNWELL       FAIR      66  59  77 NE8       29.91S
AIKEN          FAIR      59  55  88 NE8       29.95S
MANNING        FAIR      63  52  67 MISG      29.92S
COLUMBIA       MOSUNNY   63  55  75 E3        29.92R
SUMTER         MOSUNNY   62  54  75 NE8       29.91R
FLORENCE       SUNNY     62  55  77 NE7       29.94S
MYRTLE BEACH   MOSUNNY   64  57  77 N10       29.94R
N MYRTLE BEACH CLOUDY    64  58  80 NE7       29.92R

$$

GAZ063-065-086>088-099>101-113>116-118-119-134>141-150-231500-
...SOUTHEAST GEORGIA...

CITY           SKY/WX    TMP DP  RH WIND       PRES   REMARKS
SAVANNAH ARPT  PTSUNNY   64  58  80 NE13      29.84F
HUNTER AAF     SUNNY     65  64  98 NE8       29.81F
FORT STEWART   MOSUNNY   64  60  84 N10       29.82R
STATESBORO     SUNNY     64  63  96 NE8       29.88S
SYLVANIA       SUNNY    N/A N/A N/A E9        29.89S
CLAXTON        FAIR     N/A N/A N/A N6        29.87S

...CSRA...CENTRAL AND FAR SOUTHEAST GEORGIA...

CITY           SKY/WX    TMP DP  RH WIND       PRES   REMARKS
THOMSON        SUNNY     62  61  97 CALM      29.96R
AUGUSTA-BUSH   SUNNY     64  58  80 CALM      29.91R
AUGUSTA-DANIEL SUNNY     65  54  67 E8        29.92R
SWAINSBORO     FAIR      63  59  88 NE6       29.90S
VIDALIA        SUNNY     64  63  94 NE9       29.87S
EASTMAN        FAIR      66  58  74 E7        29.91R
HAZLEHURST     FAIR      65  65 100 NE5       29.86R
ALMA           CLOUDY    63  62  97 VRB7      29.84S
WAYCROSS       CLOUDY    66  66 100 NE12      29.83R
JESUP          FAIR      64  59  82 N7        29.84R
BAXLEY         FAIR      64  64 100 NE8       29.85S
BRUNSWICK      SUNNY     66  64  94 NE12G17   29.81R
SAINT SIMONS   MOSUNNY   66  61  84 NE13      29.79S

$$

SCZ027-028-034-036>038-045-046-048>050-GAZ119-141-231500-
...LAKE AND SUPPLEMENTAL COASTAL OBSERVATIONS...

STATION/POSITION TIME  TEMP    WIND        PRES    WAVE   SWELL
                       AIR SEA DIR/SP/G            HT/PER HT/PER/DIR
                 (UTC) (F)     (DEG/KT/KT) (MB)    (FT/S) (FT/S/D)
WINYAH BAY       1245   62      50/  9     1012.0
LAKE MURRAY      1320   60      20/  2/  3 1013.2R
ACE BASIN NERRS  NOT AVBL
FORT PULASKI     1348   65 61   40/  6/ 12 1010.8R
SAPELO ISLAND    1300   64      40/ 10     1009.0

$$

ANZ835-935-AMZ111-154-330-350-352-354-370-450-454-472-231500-
...C-MAN AND BUOY OBSERVATIONS...

STATION/POSITION TIME  TEMP    WIND        PRES    WAVE   SWELL
                       AIR SEA DIR/SP/G            HT/PER HT/PER/DIR
                 (UTC) (F)     (DEG/KT/KT) (MB)    (FT/S) (FT/S/D)
BUOY 41004       1250   71 69   70/ 14/ 17 1009.8    7/ 8   5/130/ 8
BUOY 41008       1250   64 63   40/ 16/ 17 1008.0    6/ 9   5/130/ 9
FOLLY BEACH CMAN 1400   64      10/ 11/ 14 1012.3R
CAPERS NEARSHORE 1308   61 59   40/ 12/ 16 1010.9R
FRIPP NEARSHORE  1308   63 60   30/ 14/ 17 1010.3R


STATION/POSITION TIME  TEMP    WIND        PRES    WAVE   SWELL
                       AIR SEA DIR/SP/G            HT/PER HT/PER/DIR
                 (UTC) (F)     (DEG/KT/KT) (MB)    (FT/S) (FT/S/D)
5E ST. MARYS GA  1400      63                N/A     7/ 9   2/110/11
FRYING PAN BUOY  1350   70 69  110/ 14/ 19 1012.3R   5/ 7   2/150/ 8
BUOY 41025       1350   70 74  140/ 12/ 14 1014.7R   4/10   3/ 60/10
CAPE LOOKOUT NC  1400   65     120/  8/  9 1013.9R
BUOY 41002       1350   68 70  110/ 21/ 25 1012.5R   7/ 6   2/ 20/11
BUOY 41010       NOT AVBL
ST AUGUSTINE FL  1400   67 67   50/ 18/ 19 1006.6R


$$



USA.gov is the U.S. government's official web portal to all federal, state and local government web resources and services.